2023/01/31 00:00:00,82.5,-3.7
2023/01/31 00:10:00,82.4,-3.6
2023/01/31 00:20:00,82.2,-3.9
2023/01/31 00:30:00,82.2,-3.8
2023/01/31 00:40:00,82.2,-3.8
2023/01/31 00:50:00,82.2,-3.6
2023/01/31 01:00:00,82.1,-4.4
2023/01/31 01:10:00,81.8,-4.0
2023/01/31 01:20:00,81.6,-4.0
2023/01/31 01:30:00,81.5,-3.8
2023/01/31 01:40:00,81.4,-4.3
2023/01/31 01:50:00,81.3,-4.3
2023/01/31 02:00:00,81.1,-4.3
2023/01/31 02:10:00,81.1,-4.8
2023/01/31 02:20:00,80.8,-4.3
2023/01/31 02:30:00,80.6,-4.3
2023/01/31 02:40:00,80.6,-4.6
2023/01/31 02:50:00,80.4,-4.4
2023/01/31 03:00:00,80.4,-4.3
2023/01/31 03:10:00,80.5,-4.2
2023/01/31 03:20:00,80.8,-4.0
2023/01/31 03:30:00,80.8,-3.7
2023/01/31 03:40:00,80.8,-4.1
2023/01/31 03:50:00,80.7,-3.6
2023/01/31 04:00:00,80.5,-3.9
2023/01/31 04:10:00,80.2,-3.8
2023/01/31 04:20:00,80.0,-4.1
2023/01/31 04:30:00,79.8,-3.7
2023/01/31 04:40:00,79.8,-3.9
2023/01/31 04:50:00,79.7,-3.9
2023/01/31 05:00:00,79.7,-4.2
2023/01/31 05:10:00,79.6,-4.4
2023/01/31 05:20:00,79.5,-4.6
2023/01/31 05:30:00,79.5,-4.6
2023/01/31 05:40:00,79.4,-4.2
2023/01/31 05:50:00,79.5,-4.4
2023/01/31 06:00:00,79.5,-4.9
2023/01/31 06:10:00,79.4,-4.5
2023/01/31 06:20:00,79.3,-4.4
2023/01/31 06:30:00,79.2,-4.8
2023/01/31 06:40:00,79.2,-5.3
2023/01/31 06:50:00,79.1,-5.7
2023/01/31 07:00:00,79.0,-5.7
2023/01/31 07:10:00,78.9,-5.6
2023/01/31 07:20:00,78.8,-5.4
2023/01/31 07:30:00,78.8,-5.2
2023/01/31 07:40:00,78.7,-5.2
2023/01/31 07:50:00,78.6,-5.2
2023/01/31 08:00:00,78.5,-4.6
2023/01/31 08:10:00,78.4,-5.0
2023/01/31 08:20:00,78.3,-5.2
2023/01/31 08:30:00,78.2,-5.3
2023/01/31 08:40:00,78.0,-5.6
2023/01/31 08:50:00,77.9,-4.8
2023/01/31 09:00:00,77.9,-4.6
2023/01/31 09:10:00,77.9,-4.5
2023/01/31 09:20:00,77.7,-4.6
2023/01/31 09:30:00,77.6,-4.1
2023/01/31 09:40:00,77.6,-3.7
2023/01/31 09:50:00,77.5,-3.3
2023/01/31 10:00:00,77.6,-3.0
2023/01/31 10:10:00,77.7,-1.7
2023/01/31 10:20:00,77.6,-2.1
2023/01/31 10:30:00,77.4,-2.4
2023/01/31 10:40:00,77.3,-0.9
2023/01/31 10:50:00,77.2, 0.6
2023/01/31 11:00:00,77.1, 1.5
2023/01/31 11:10:00,77.1, 1.8
2023/01/31 11:20:00,76.9, 2.0
2023/01/31 11:30:00,76.7, 1.0
2023/01/31 11:40:00,76.6, 0.6
2023/01/31 11:50:00,76.8, 1.9
2023/01/31 12:00:00,76.7, 0.9
2023/01/31 12:10:00,76.8, 2.1
2023/01/31 12:20:00,76.9, 2.2
2023/01/31 12:30:00,76.8, 2.0
2023/01/31 12:40:00,76.7, 1.8
2023/01/31 12:50:00,76.5, 2.4
2023/01/31 13:00:00,76.1, 1.4
2023/01/31 13:10:00,75.8, 1.5
2023/01/31 13:20:00,75.6, 1.5
2023/01/31 13:30:00,75.5, 1.2
2023/01/31 13:40:00,75.4, 1.0
2023/01/31 13:50:00,75.5, 1.3
2023/01/31 14:00:00,75.4, 1.6
2023/01/31 14:10:00,75.5, 0.7
2023/01/31 14:20:00,75.6, 1.2
2023/01/31 14:30:00,75.4, 1.0
2023/01/31 14:40:00,75.2, 1.4
2023/01/31 14:50:00,75.1, 1.9
2023/01/31 15:00:00,75.0, 1.7
2023/01/31 15:10:00,75.0, 1.3
2023/01/31 15:20:00,75.0, 0.7
2023/01/31 15:30:00,75.0,-0.3
2023/01/31 15:40:00,75.0,-0.1
2023/01/31 15:50:00,75.0,-0.3
2023/01/31 16:00:00,75.0,-0.4
2023/01/31 16:10:00,74.9,-0.7
2023/01/31 16:20:00,74.6,-0.9
2023/01/31 16:30:00,74.4,-0.9
2023/01/31 16:40:00,74.3,-1.0
2023/01/31 16:50:00,74.3,-1.1
2023/01/31 17:00:00,74.1,-1.2
2023/01/31 17:10:00,74.0,-1.4
2023/01/31 17:20:00,74.0,-1.2
2023/01/31 17:30:00,74.0,-1.9
2023/01/31 17:40:00,74.0,-1.8
2023/01/31 17:50:00,73.7,-1.9
2023/01/31 18:00:00,73.7,-1.6
2023/01/31 18:10:00,73.8,-2.0
2023/01/31 18:20:00,73.6,-1.4
2023/01/31 18:30:00,73.4,-1.4
2023/01/31 18:40:00,73.3,-1.9
2023/01/31 18:50:00,73.2,-1.9
2023/01/31 19:00:00,73.3,-1.7
2023/01/31 19:10:00,73.5,-1.7
2023/01/31 19:20:00,73.5,-1.7
2023/01/31 19:30:00,73.5,-2.2
2023/01/31 19:40:00,73.5,-2.0
2023/01/31 19:50:00,73.4,-2.3
2023/01/31 20:00:00,73.3,-3.2
2023/01/31 20:10:00,73.2,-3.0
2023/01/31 20:20:00,73.0,-2.5
2023/01/31 20:30:00,73.0,-1.7
2023/01/31 20:40:00,72.9,-1.7
2023/01/31 20:50:00,73.0,-1.6
2023/01/31 21:00:00,73.0,-1.4
2023/01/31 21:10:00,73.0,-1.6
2023/01/31 21:20:00,73.0,-1.5
2023/01/31 21:30:00,72.9,-1.7
2023/01/31 21:40:00,72.8,-1.4
2023/01/31 21:50:00,72.8,-1.5
2023/01/31 22:00:00,72.7,-2.0
2023/01/31 22:10:00,72.5,-1.9
2023/01/31 22:20:00,72.5,-1.7
2023/01/31 22:30:00,72.4,-1.7
2023/01/31 22:40:00,72.4,-2.1
2023/01/31 22:50:00,72.4,-1.9
2023/01/31 23:00:00,72.4,-1.7
2023/01/31 23:10:00,72.4,-1.4
2023/01/31 23:20:00,72.4,-2.0
2023/01/31 23:30:00,72.3,-2.1
2023/01/31 23:40:00,72.2,-2.3
2023/01/31 23:50:00,72.1,-2.4
